Regional Weather Roundup
Issued by NWS

Home | Current Version | Previous Version | Text Only | Print | Product List | Glossary On
Versions: 1 2 3 4 5 6 7 8 9 10 11 12 13 14 15 16 17 18 19 20 21 22 23 24 25 26 27 28 29 30 31 32 33 34 35 36 37 38 39 40 41 42 43 44 45 46 47 48 49 50
000
ASUS43 KMKX 211959
RWRWI

WISCONSIN REGIONAL WEATHER ROUNDUP
NATIONAL WEATHER SERVICE MILWAUKEE/SULLIVAN WI
200 PM CST SAT JAN 21 2017

NOTE: "FAIR" INDICATES FEW OR NO CLOUDS BELOW 12,000 FEET WITH NO
SIGNIFICANT WEATHER AND/OR OBSTRUCTIONS TO VISIBILITY.

WIZ001-002-006>008-014>016-023>028-212100-
NORTHWEST WISCONSIN

CITY           SKY/WX    TMP DP  RH WIND       PRES   REMARKS
SUPERIOR ARPT  RAIN      35  35 100 NE8       29.45F WCI  28
ASHLAND        LGT RAIN  35  34  96 N6        29.45F FOG     WCI  30
HAYWARD        LGT RAIN  38  35  89 E5        29.41S WCI  34
SIREN          CLOUDY    37  36  99 NE6       29.41S FOG     WCI  32
CUMBERLAND     FOG       34  34 100 E3        29.39F VSB 3/4
RICE LAKE      FOG       37  36  98 CALM      29.41F VSB 1
CHETEK         CLOUDY    36  36 100 CALM      29.40S FOG
LADYSMITH      CLOUDY    38  37  98 SE7       29.42S WCI  33
EAU CLAIRE     NOT AVBL
MENOMONIE        N/A    N/A N/A N/A MISG        N/A
NEW RICHMOND   FOG       36  36 100 CALM      29.39R VSB 3/4
OSCEOLA        CLOUDY    37  37 100 E5        29.42S WCI  34
$$

WIZ003>005-009-010-017-018-212100-
NORTH CENTRAL WISCONSIN

CITY           SKY/WX    TMP DP  RH WIND       PRES   REMARKS
MANITOWISH WTR RAIN      35  35 100 E5        29.41F WCI  31
ARBOR VITAE    LGT RAIN  37  36  96 SE7       29.41F WCI  31
WOODRUFF       LGT RAIN  37  36  96 SE7       29.41F WCI  31
RHINELANDER    CLOUDY    37  37 100 SE6       29.42F FOG     WCI  32
EAGLE RIVER    CLOUDY    36  36 100 E10       29.41F FOG     WCI  28
LAND O LAKES   FOG       36  36 100 SE8       29.45F VSB 1/2 WCI  30
PHILLIPS       LGT RAIN  35  35 100 E5        29.39F WCI  31
TOMAHAWK       FOG       37  36  96 CALM      29.42F VSB 1/2
MEDFORD        LGT RAIN  35  35  99 SE5       29.39F VSB 1/4 WCI  31
MERRILL        FOG       37  37 100 SE3         N/A  VSB 1
$$

WIZ029-030-035-036-043>047-212100-
CENTRAL WISCONSIN

CITY           SKY/WX    TMP DP  RH WIND       PRES   REMARKS
WAUSAU         FOG       35  35 100 E6        29.40S VSB 1/4 WCI  30
MOSINEE        FOG       36  36 100 E9        29.41F VSB 1/8 WCI  29
MARSHFIELD     FOG       35  35 100 E6        29.38F VSB 1/4 WCI  30
STEVENS POINT  FOG       34  34 100 E3        29.42S VSB<1/4
WAUPACA        FOG       39  38  97 CALM      29.43S VSB 1/4
WAUTOMA        LGT RAIN  38  38 100 NE3       29.43R VSB 1/4
WISC RAPIDS    FOG       37  37 100 CALM      29.42S VSB 1/4
CAMP DOUGLAS   NOT AVBL
$$

WIZ011>013-019>022-031-037>040-048>050-212100-
NORTHEAST WISCONSIN

CITY           SKY/WX    TMP DP  RH WIND       PRES   REMARKS
ANTIGO         FOG       34  34 100 E7        29.42F VSB 3/4 WCI  28
SHAWANO        FOG       37  36  96 NE7       29.45S VSB 1/4 WCI  31
OCONTO         CLOUDY    36  36  99 NE6       29.46F VSB 1/2 WCI  31
STURGEON BAY   LGT RAIN  39  39 100 E5        29.47F VSB 1/4
GREEN BAY      FOG       37  37 100 NE8       29.43F VSB 1/4 WCI  31
MANITOWOC      NOT AVBL
APPLETON       FOG       37  37 100 NE6       29.40F VSB 1/8 WCI  33
CLINTONVILLE   FOG       36  36 100 NE7       29.43F VSB 1/4 WCI  30
OSHKOSH        FOG       38  38 100 CALM      29.41S VSB 1/4
$$

WIZ032>034-041-042-053>061-212100-
SOUTHWEST WISCONSIN

CITY           SKY/WX    TMP DP  RH WIND       PRES   REMARKS
LA CROSSE      FOG       43  40  89 CALM      29.39F VSB 1/4
SPARTA         CLOUDY    40  40 100 S5        29.41F
VIROQUA        CLOUDY    40  40 100 S3        29.39F VSB<1/4
BOSCOBEL       CLOUDY    43  42  97 CALM      29.43R FOG
PRAIRIE DU CHI CLOUDY    41  40  97 CALM      29.42R FOG
PLATTEVILLE    CLOUDY    44  44 100 S7        29.43R VSB<1/4
$$

WIZ056-057-062-063-064-067-068-212100-
SOUTH CENTRAL WISCONSIN

CITY           SKY/WX    TMP DP  RH WIND       PRES   REMARKS
REEDSBURG      FOG       40  40 100 CALM      29.40S VSB 1/4
BARABOO/DELLS  FOG       41  41  99 CALM      29.41S VSB 1/4
LONE ROCK      NOT AVBL
MINERAL POINT  FOG       45  45 100 SW6       29.42R VSB 3/4
MADISON        DRIZZLE   45  43  93 SW8       29.42S FOG
MIDDLETON      CLOUDY    45  45 100 S6        29.42S
WATERTOWN      CLOUDY    47  47 100 S7        29.42R
MONROE         CLOUDY    43  43 100 SW13      29.42S FOG
JANESVILLE     PTSUNNY   54  46  76 SW12G17   29.42S
$$

WIZ051-052-058>065-066-070>072-212100-
SOUTHEAST WISCONSIN

CITY           SKY/WX    TMP DP  RH WIND       PRES   REMARKS
MILWAUKEE      MOSUNNY   48  45  89 SE8       29.41F
WAUKESHA       MOSUNNY   54  45  71 S10       29.41F
MILWAUKEE/TIMM MOSUNNY   50  45  81 E7        29.41F
RACINE         SUNNY     46  42  86 S9        29.44F
KENOSHA        SUNNY     58  45  62 S13       29.43F
FOND DU LAC    CLOUDY    44  41  89 S5        29.41S FOG
SHEBOYGAN      FOG       42  41  96 S8        29.43F VSB 1/4
WEST BEND      CLOUDY    46  46 100 SE6       29.41F FOG
JUNEAU         CLOUDY    43  43  99 S10       29.43R FOG
$$

LSZ147-162-212100-
LAKE SUPERIOR

STATION/POSITION TIME  TEMP    WIND        PRES    WAVE
                       AIR SEA DIR/SP/G            HT/PER
                 (UTC) (F)     (DEG/KT/KT) (MB)    (FT/S)
DEVILS ISLAND    1900   35      50/ 11/ 11  999.0F
PORT WING        1940   34      40/ 12/ 14  998.0F
SAXON HARBOR     1930   34      60/  5/  7  997.6F
$$

LMZ867-665-643>646-212100-
LAKE MICHIGAN

STATION/POSITION TIME  TEMP    WIND        PRES    WAVE
                       AIR SEA DIR/SP/G            HT/PER
                 (UTC) (F)     (DEG/KT/KT) (MB)    (FT/S)
NORTHPORT PIER   1940   35      70/  7/  8  999.3F
SISTER BAY       1905   38     110/  8/ 11   N/A
KEWAUNEE LAKESHO 1930   39      50/  2/  3  997.4F
SHEBOYGAN LAKESH 1900   39     190/  5/  5  997.4F
PORT WASHINGTON  1940   39     200/  4/  7  998.0F
KENOSHA   LAKESH 1900   36     170/  7/ 10  997.6
$$

TC  - TEMPERATURE IN CELSIUS
VSB - VISIBILITY IN STATUTE MILES
WCI - WIND CHILL INDEX
HX  - HEAT INDEX




USA.gov is the U.S. government's official web portal to all federal, state and local government web resources and services.